Weather in Bashkatovo

Russia / Kursk Oblast     51°15′46″N   35°58′38″E
temp.,
°C
wind,
m/s
gust,
m/s
humid.,
%
clouds,
%
prec.,
mm/h
press.,
hPa
HPBL,
m
15 august, mon
mon1500:00+22ene5115479 0.0 1015379
03:00+19ene5135154 0.1 1015309
06:00+19ene51253100 0.0 1015240
09:00+25e71340100 0.0 1014518
12:00+29e8930100 0.0 10141156
15:00+32e81027100 0.0 10132100
18:00+29ene81333100 0.0 1012694
21:00+26ene81736100 0.0 1012592
16 august, tue
tue1600:00+26e8183686 0.0 1012572
03:00+26e7163573 0.0 1012700
06:00+23e7164434 0.0 1012503
09:00+23e61336100 0.0 1013538
12:00+23e71435100 0.0 1014467
15:00+26ene81233100 0.0 1013565
18:00+25ene81542100 0.0 1013772
21:00+25ene71735100 0.0 1012652
17 august, wed
wed1700:00+25ene71737100 0.0 1011628
03:00+18ene51273100 0.8 1011237
06:00+19e4117130 0.3 1011222
09:00+25e511459 0.4 1011640
12:00+29ese7834100 0.1 10111515
15:00+32se692782 0.1 10092307
18:00+30ne223681 0.0 100959
21:00+25e6123986 0.1 1010403
18 august, thu
thu1800:00+18ne41176100 0.7 1010217
03:00+19e5136614 0.7 1010367
06:00+17ene4117812 0.1 1011280
09:00+24e694711 0.1 1010518
12:00+28ene563432 0.0 10101161
15:00+31ene55295 0.1 10091802
18:00+30ne46355 0.0 1009582
21:00+24ene513465 0.0 1010325
19 august, fri
fri1900:00+20ne511635 0.0 1010234
03:00+19ene410704 0.1 1009196
06:00+18ene510865 0.1 1010254
09:00+23e710645 0.1 1011604
12:00+28e674551 0.0 10101166
15:00+31e5638100 0.0 10101797
18:00+29ene454490 0.0 10101107
21:00+19ese3490100 1.3 1012107